Lafayette, CO

1:42 AM MST on February 08, 2016 (GMT -0700)
Erie Municipal Airport

Weather History for KEIK - May, 2013

Change the Weather History Date:

Tuesday, May 28, 2013

  Actual Average (KBJC) Record (KBJC)
Temperature  
Mean Temperature 62 °F -  
Max Temperature 81 °F 73 °F 95 °F (1989)
Min Temperature 43 °F 50 °F 39 °F (1992)
Degree Days  
Heating Degree Days 3    
Growing Degree Days 12 (Base 50)    
Moisture  
Dew Point 39 °F    
Average Humidity 47    
Maximum Humidity 87    
Minimum Humidity 12    
Precipitation  
Precipitation 0.00 in - - ()
Sea Level Pressure  
Sea Level Pressure 29.73 in    
Wind  
Wind Speed 3 mph (NNW)    
Max Wind Speed 22 mph    
Max Gust Speed 28 mph    
Visibility 10 miles    
Events Thunderstorm    
Averages and records for this station are not official NWS values.
T = Trace of Precipitation, MM = Missing Value Source: NWS Daily Summary

Daily Weather History Graph

Daily Weather History Graph

Search for Another Location

Airport or City:

Trip Planner

Search our weather history database for the weather conditions in past years. The results will help you decide how hot, cold, wet, or windy it might be!

Date:

Astronomy

May. 28, 2013 Rise Set
Actual Time 5:35 AM MDT 8:20 PM MDT
Civil Twilight 5:03 AM MDT 8:52 PM MDT
Nautical Twilight 4:23 AM MDT 9:32 PM MDT
Astronomical Twilight 3:38 AM MDT 10:17 PM MDT
Moon 11:45 PM MDT (5/28) 9:26 AM MDT (5/28)
Length of Visible Light 15h 48m
Length of Day
14h 45m
Waning Gibbous, 82% of the Moon is Illuminated
May 28
Waning Gibbous
May 31
Last Quarter
Jun 8
New
Jun 16
First Quarter
Jun 23
Full

Hourly Weather History & Observations

Time (MDT) Temp. Windchill Dew Point Humidity Pressure Visibility Wind Dir Wind Speed Gust Speed Precip Events Conditions
12:15 AM 53.1 °F - 40.1 °F 61% 29.82 in 10.0 mi Calm Calm - N/A   Clear
12:35 AM 51.1 °F - 41.0 °F 68% 29.82 in 10.0 mi Calm Calm - N/A   Clear
12:55 AM 49.8 °F - 40.6 °F 71% 29.81 in 10.0 mi Calm Calm - N/A   Clear
1:15 AM 48.4 °F - 41.4 °F 77% 29.80 in 10.0 mi Calm Calm - N/A   Clear
1:35 AM 46.8 °F - 40.8 °F 80% 29.80 in 10.0 mi South 3.5 mph - N/A   Clear
1:55 AM 49.3 °F - 39.4 °F 69% 29.79 in 10.0 mi Calm Calm - N/A   Clear
2:15 AM 49.6 °F - 37.2 °F 62% 29.80 in 10.0 mi SSW 4.6 mph - N/A   Clear
2:35 AM 48.2 °F - 37.2 °F 66% 29.80 in 10.0 mi SW 3.5 mph - N/A   Clear
2:55 AM 46.2 °F - 37.2 °F 71% 29.81 in 10.0 mi Calm Calm - N/A   Clear
3:15 AM 46.2 °F - 37.2 °F 71% 29.81 in 10.0 mi Calm Calm - N/A   Clear
3:35 AM 46.0 °F - 37.4 °F 72% 29.82 in 10.0 mi Calm Calm - N/A   Clear
3:55 AM 45.5 °F - 38.3 °F 76% 29.83 in 10.0 mi Calm Calm - N/A   Clear
4:15 AM 43.3 °F 41.7 °F 37.2 °F 79% 29.84 in 10.0 mi North 3.5 mph - N/A   Clear
4:35 AM 44.2 °F 41.8 °F 38.8 °F 81% 29.85 in 10.0 mi North 4.6 mph - N/A   Clear
4:55 AM 44.8 °F - 39.6 °F 82% 29.86 in 10.0 mi Calm Calm - N/A   Clear
5:15 AM 45.9 °F - 39.6 °F 79% 29.85 in 10.0 mi Calm Calm - N/A   Clear
5:35 AM 44.8 °F 43.3 °F 39.6 °F 82% 29.86 in 10.0 mi South 3.5 mph - N/A   Clear
5:55 AM 44.8 °F - 40.1 °F 84% 29.86 in 10.0 mi Calm Calm - N/A   Clear
6:15 AM 43.5 °F - 39.7 °F 87% 29.86 in 10.0 mi Calm Calm - N/A   Clear
6:35 AM 45.3 °F - 41.2 °F 85% 29.86 in 10.0 mi Calm Calm - N/A   Clear
6:55 AM 48.7 °F - 43.2 °F 81% 29.86 in 10.0 mi Calm Calm - N/A   Clear
7:15 AM 51.6 °F - 43.3 °F 73% 29.86 in 10.0 mi Calm Calm - N/A   Clear
7:35 AM 54.7 °F - 42.6 °F 64% 29.86 in 10.0 mi Calm Calm - N/A   Clear
7:55 AM 56.3 °F - 42.4 °F 60% 29.85 in 10.0 mi Calm Calm - N/A   Clear
8:15 AM 56.8 °F - 42.3 °F 58% 29.85 in 10.0 mi NNW 3.5 mph - N/A   Clear
8:35 AM 57.2 °F - 41.9 °F 57% 29.85 in 10.0 mi Calm Calm - N/A   Clear
8:55 AM 58.3 °F - 41.7 °F 54% 29.85 in 10.0 mi Calm Calm - N/A   Clear
9:15 AM 59.0 °F - 41.7 °F 53% 29.84 in 10.0 mi Calm Calm - N/A   Clear
9:35 AM 60.6 °F - 42.3 °F 51% 29.83 in 10.0 mi Calm Calm - N/A   Clear
9:55 AM 61.0 °F - 41.9 °F 49% 29.82 in 10.0 mi Calm Calm - N/A   Clear
10:15 AM 61.7 °F - 41.9 °F 48% 29.81 in 10.0 mi Calm Calm - N/A   Clear
10:35 AM 64.0 °F - 43.0 °F 46% 29.80 in 10.0 mi Calm Calm - N/A   Clear
10:55 AM 65.3 °F - 42.6 °F 44% 29.79 in 10.0 mi SE 4.6 mph - N/A   Clear
11:15 AM 67.5 °F - 42.4 °F 40% 29.78 in 10.0 mi South 3.5 mph - N/A   Clear
11:35 AM 68.7 °F - 43.7 °F 40% 29.77 in 10.0 mi SE 6.9 mph - N/A   Clear
11:55 AM 69.4 °F - 41.0 °F 36% 29.77 in 10.0 mi South 9.2 mph - N/A   Clear
12:15 PM 70.7 °F - 40.5 °F 33% 29.75 in 10.0 mi SSE 4.6 mph - N/A   Clear
12:35 PM 72.9 °F - 40.1 °F 31% 29.74 in 10.0 mi South 6.9 mph - N/A   Clear
12:55 PM 73.4 °F - 40.6 °F 31% 29.72 in 10.0 mi SE 6.9 mph - N/A   Clear
1:15 PM 75.9 °F - 41.7 °F 29% 29.71 in 10.0 mi ESE 6.9 mph - N/A   Clear
1:35 PM 76.8 °F - 42.4 °F 29% 29.69 in 10.0 mi SE 8.1 mph - N/A   Clear
1:55 PM 77.9 °F - 41.5 °F 27% 29.68 in 10.0 mi SSE 6.9 mph - N/A   Clear
2:15 PM 80.6 °F - 37.0 °F 21% 29.66 in 10.0 mi ESE 8.1 mph 16.1 mph N/A   Clear
2:35 PM 80.1 °F - 35.6 °F 20% 29.65 in 10.0 mi SSW 6.9 mph 16.1 mph N/A   Clear
2:55 PM 80.2 °F - 32.5 °F 18% 29.64 in 10.0 mi Calm Calm - N/A   Scattered Clouds
3:15 PM 81.1 °F - 36.0 °F 20% 29.63 in 10.0 mi West 8.1 mph - N/A   Scattered Clouds
3:35 PM 78.4 °F - 41.7 °F 27% 29.62 in 10.0 mi NNW 21.9 mph 27.6 mph N/A   Scattered Clouds
3:55 PM 77.0 °F - 42.1 °F 29% 29.61 in 10.0 mi NNW 12.7 mph - N/A   Scattered Clouds
4:15 PM 78.6 °F - 42.1 °F 27% 29.61 in 10.0 mi NNW 15.0 mph 19.6 mph N/A   Clear
4:35 PM 78.3 °F - 39.2 °F 25% 29.61 in 10.0 mi NW 15.0 mph 19.6 mph N/A   Clear
4:55 PM 79.3 °F - 35.2 °F 20% 29.60 in 10.0 mi NW 11.5 mph - N/A   Clear
5:15 PM 78.8 °F - 35.4 °F 21% 29.59 in 10.0 mi NW 8.1 mph - N/A   Clear
5:35 PM 79.0 °F - 33.8 °F 19% 29.58 in 10.0 mi NW 8.1 mph - N/A   Clear
5:55 PM 79.7 °F - 36.0 °F 21% 29.57 in 10.0 mi North 6.9 mph - N/A   Clear
6:15 PM 77.0 °F - 35.2 °F 22% 29.58 in 10.0 mi Calm Calm - N/A   Clear
6:35 PM 77.0 °F - 32.0 °F 19% 29.58 in 10.0 mi South 6.9 mph - N/A   Clear
6:55 PM 77.7 °F - 21.6 °F 12% 29.57 in 10.0 mi SSW 3.5 mph - N/A   Clear
7:15 PM 75.4 °F - 27.0 °F 17% 29.56 in 10.0 mi West 4.6 mph - N/A   Clear
7:35 PM 71.4 °F - 36.0 °F 27% 29.56 in 10.0 mi NNW 3.5 mph - N/A   Clear
7:55 PM 72.7 °F - 36.7 °F 27% 29.58 in 10.0 mi NE 3.5 mph - N/A   Clear
8:15 PM 69.1 °F - 38.3 °F 32% 29.58 in 10.0 mi NNW 10.4 mph - N/A   Scattered Clouds
8:35 PM 71.4 °F - 36.7 °F 28% 29.58 in 10.0 mi North 10.4 mph - N/A   Scattered Clouds
8:55 PM 68.9 °F - 38.3 °F 33% 29.60 in 10.0 mi NE 6.9 mph - N/A   Clear
9:15 PM 66.6 °F - 39.9 °F 38% 29.61 in 10.0 mi North 6.9 mph - N/A   Clear
9:35 PM 64.8 °F - 39.9 °F 40% 29.62 in 10.0 mi NNE 4.6 mph - N/A   Clear
9:55 PM 63.0 °F - 40.6 °F 44% 29.63 in 10.0 mi NNW 4.6 mph - N/A   Clear
10:15 PM 65.5 °F - 36.3 °F 34% 29.63 in 10.0 mi NNW 6.9 mph - N/A   Clear
10:35 PM 63.0 °F - 39.6 °F 42% 29.63 in 10.0 mi North 9.2 mph - N/A   Clear
10:55 PM 63.3 °F - 39.7 °F 42% 29.64 in 10.0 mi North 8.1 mph - N/A Thunderstorm Scattered Clouds
11:15 PM 61.7 °F - 41.2 °F 47% 29.64 in 10.0 mi NNW 9.2 mph - N/A Thunderstorm Scattered Clouds
11:35 PM 61.0 °F - 43.3 °F 52% 29.64 in 10.0 mi North 15.0 mph - N/A Thunderstorm Thunderstorm
11:55 PM 59.9 °F - 45.0 °F 58% 29.63 in 10.0 mi North 8.1 mph - N/A Thunderstorm Clear